Wind_Speed
75 75 72 71 70 74 74 73 72 43 26 22 31 39 49 63 71 74 74 71 70 71 79 87 81 81 80 76 79 81 83 87 83 81 80 81 77 78 78 78 77 73 71 70 71 70 68 65 63 59 54 53 56 60
72 69 69 69 72 73 73 73 73 44 24 20 26 36 39 56 63 69 71 70 67 69 66 69 79 82 80 82 84 85 87 91 91 87 85 84 80 78 82 82 81 74 74 69 73 71 72 68 64 65 62 59 62 67
64 66 67 69 71 71 70 72 71 46 26 18 22 32 39 50 58 64 66 67 65 62 57 59 62 73 84 82 78 78 81 81 84 83 85 87 87 84 87 89 82 80 73 75 81 77 73 73 68 65 63 66 67 71
62 66 67 69 70 68 66 67 72 50 26 18 20 28 38 48 55 60 62 59 60 57 52 57 54 47 49 59 75 81 80 76 78 77 77 82 84 94 97 92 91 91 81 84 83 80 75 67 70 76 77 80 78 73
63 64 67 71 66 64 64 67 69 52 26 16 20 27 34 43 50 55 54 51 52 52 48 50 46 47 47 46 48 58 70 78 81 77 77 79 86 88 88 88 89 87 86 86 84 86 82 82 81 88 81 82 82 78
62 65 69 68 66 62 63 65 68 56 28 16 19 27 33 45 49 50 46 45 48 49 45 42 43 43 47 43 43 43 46 50 60 74 78 84 85 83 86 88 91 81 68 77 77 82 80 79 77 84 84 85 85 76
64 66 70 70 64 60 62 64 67 54 29 16 19 25 35 45 48 47 46 43 45 43 40 39 42 44 44 43 42 40 41 43 44 48 54 70 81 87 89 90 89 86 83 76 78 80 78 78 82 79 65 69 72 70
66 69 72 70 64 60 62 65 67 55 28 15 19 27 36 46 45 43 40 41 40 39 37 36 39 41 40 40 40 40 42 44 46 49 51 57 66 66 73 79 90 95 90 86 82 78 78 76 76 81 84 81 75 71
67 71 72 73 63 61 64 67 65 44 23 15 22 30 38 47 48 43 38 39 38 37 37 36 35 36 36 38 40 41 42 43 45 48 52 57 57 50 55 72 81 88 93 92 91 92 93 95 90 85 83 81 78 71
69 72 74 74 65 64 66 71 57 37 20 17 25 35 40 46 48 38 36 36 34 33 30 27 30 34 34 36 39 42 41 40 43 48 51 50 54 54 55 58 61 67 74 86 94 95 95 93 90 86 84 85 84 81
71 73 75 74 66 66 69 71 53 30 18 20 28 38 40 40 40 37 36 35 33 33 31 28 29 29 30 34 38 39 40 40 40 40 36 39 42 43 42 42 44 49 56 64 71 74 78 80 83 88 89 86 83 81
72 74 77 74 67 69 74 67 42 25 18 23 32 38 40 41 42 40 39 37 37 30 31 29 25 27 30 32 33 35 31 27 24 21 20 23 16 14 14 8 10 7 14 28 41 50 58 63 67 67 69 74 79 80
74 76 78 71 70 73 73 54 33 22 19 26 33 38 45 45 42 43 43 38 39 32 29 27 26 27 27 28 23 17 14 14 14 18 19 23 22 10 9 6 16 25 31 32 33 34 39 46 48 51 54 57 61 66
76 78 73 72 74 78 63 41 26 19 21 29 37 41 45 43 42 42 40 35 32 27 26 26 26 25 16 14 14 13 16 21 27 32 25 23 16 13 7 2 4 30 40 31 23 18 21 26 31 35 37 40 44 48
78 74 71 76 78 65 45 30 21 18 24 33 40 43 46 44 42 40 36 31 23 24 22 21 21 18 15 10 15 26 27 34 31 22 17 14 11 6 7 2 6 26 32 24 14 10 7 8 10 13 16 19 23 28
75 72 77 76 60 44 32 22 18 20 27 37 44 47 48 44 40 38 37 30 28 29 21 17 21 18 12 13 17 24 29 31 26 20 14 16 9 8 11 11 11 17 26 22 7 6 7 6 4 3 4 7 11 15
72 78 73 57 43 32 23 17 18 23 31 41 46 48 47 43 39 39 35 30 27 21 22 28 21 14 15 17 25 32 30 25 21 17 16 15 18 13 5 11 28 34 28 11 4 5 6 6 8 10 12 14 17 21
78 72 54 41 31 22 15 14 20 27 35 43 50 51 49 44 40 36 34 29 24 21 34 27 25 21 22 31 45 33 26 19 18 16 16 12 13 24 9 8 13 16 14 12 11 10 10 12 16 19 21 24 27 30
73 54 40 29 20 14 11 15 22 29 37 46 51 52 50 46 42 39 34 26 18 33 35 32 28 28 29 40 42 33 30 26 21 20 16 10 10 14 10 10 17 17 16 16 15 16 17 20 24 26 30 34 37 41
57 41 30 20 13 9 9 16 23 32 43 51 53 53 51 47 43 38 32 29 28 40 34 32 30 30 32 41 41 38 34 33 29 21 22 16 15 17 18 22 22 21 22 21 20 22 24 28 31 33 36 39 42 47
42 32 22 14 10 8 11 17 26 35 47 51 52 51 49 47 43 36 31 24 33 40 34 31 30 30 36 38 41 39 35 29 25 15 12 16 17 17 19 23 25 25 24 24 25 28 30 31 32 36 39 45 49 51
36 26 17 11 8 8 12 20 29 40 50 51 52 50 48 44 40 34 29 26 41 39 35 29 27 26 28 35 36 33 30 26 22 18 17 20 21 21 19 17 20 23 26 28 29 31 30 34 34 40 42 46 49 46
28 21 14 8 7 10 15 23 31 44 51 50 49 46 43 41 38 32 27 38 40 36 34 31 30 26 26 23 21 22 22 21 18 17 16 16 15 16 17 20 24 27 30 29 29 31 36 36 40 41 44 45 41 30
23 17 11 8 9 12 18 25 33 46 51 50 49 46 44 41 35 30 37 42 37 35 33 31 28 24 24 23 20 18 16 14 12 12 11 12 15 18 22 25 27 27 28 31 35 37 41 43 40 39 41 37 21 3
20 15 8 7 10 15 21 27 34 46 52 51 49 47 45 42 35 36 42 39 36 36 33 30 26 25 23 22 19 16 14 12 13 14 14 15 19 22 26 27 28 30 34 38 44 45 43 38 36 36 26 15 18 12
14 9 5 6 12 18 22 26 34 46 52 52 48 48 47 42 38 41 41 38 37 34 31 28 24 24 23 20 18 16 16 17 17 17 19 22 25 25 25 29 32 35 40 46 45 42 38 32 25 16 10 17 18 9
10 5 2 7 14 19 23 27 34 46 53 53 49 49 48 43 40 44 43 40 37 33 29 26 24 23 21 19 19 19 19 21 21 22 23 24 23 24 26 30 35 40 45 42 38 28 17 8 14 20 25 24 20 17
6 2 4 9 14 17 21 26 32 43 51 53 50 50 50 47 44 44 42 38 32 30 27 26 24 24 25 26 26 25 25 24 24 24 23 24 22 25 28 32 38 44 41 36 25 12 8 17 19 17 17 19 24 24
7 4 5 10 14 16 18 23 31 39 48 51 48 48 49 47 43 41 40 37 34 32 30 27 26 27 27 26 25 23 23 24 25 21 20 21 23 24 31 33 40 37 33 27 14 5 22 19 13 12 20 20 17 17
11 7 6 9 13 15 17 21 27 33 40 46 49 48 46 45 43 40 38 36 34 32 29 27 26 27 28 28 27 24 22 19 18 17 18 20 23 26 28 34 31 30 26 18 8 15 23 20 19 16 14 17 22 21
17 8 6 8 12 14 17 21 24 30 34 37 43 45 43 40 39 38 35 33 31 29 25 23 23 25 25 23 23 21 16 19 17 16 17 19 21 24 28 30 24 24 18 14 8 18 23 20 18 21 24 23 22 24
23 16 7 9 12 15 17 18 21 23 26 29 31 33 35 36 35 32 29 26 25 24 24 23 21 27 31 29 25 20 19 20 19 17 19 19 21 23 27 25 20 17 15 14 12 8 3 16 27 31 31 27 27 31
18 22 14 11 12 16 19 20 22 22 22 21 23 26 28 29 29 28 26 24 22 21 18 13 16 19 19 20 22 21 17 16 15 14 15 17 19 23 26 24 20 18 18 21 21 21 18 13 10 7 6 7 9 12
Wind_Direction
328 330 331 333 336 336 337 338 343 334 307 267 236 226 218 215 217 221 223 225 226 227 227 228 229 230 231 232 234 235 233 237 238 240 242 244 244 247 250 252 254 255 254 256 260 263 264 267 269 270 273 280 280 280
329 328 331 332 335 334 336 337 340 334 310 267 238 225 217 214 218 221 223 223 224 227 226 227 230 230 231 229 227 228 230 233 236 237 241 244 247 248 253 254 255 254 258 261 262 264 265 267 271 276 275 271 271 276
328 328 331 332 334 333 334 337 341 338 313 267 236 224 217 214 215 219 222 222 224 227 226 229 229 229 232 232 235 237 238 238 241 241 240 243 246 250 252 253 257 257 260 261 263 266 267 271 273 267 266 270 274 279
328 327 331 331 333 331 332 334 339 336 316 273 237 222 216 212 213 217 221 221 223 225 224 229 237 237 237 236 236 237 238 237 240 241 242 245 248 248 248 250 250 253 255 257 259 264 268 266 267 273 276 278 277 276
328 329 329 330 332 329 330 333 336 337 315 277 236 221 216 209 209 217 220 221 221 223 222 227 230 229 229 230 232 236 238 240 240 239 240 242 243 245 249 252 252 253 254 254 257 258 260 261 265 268 270 271 275 277
328 329 328 329 331 328 328 330 337 337 319 281 236 216 209 202 206 214 216 215 216 217 219 223 226 228 230 231 232 233 236 239 241 241 242 245 246 246 249 251 253 252 253 257 260 259 258 257 257 265 265 268 271 274
331 328 328 330 329 327 327 331 333 333 321 279 229 209 202 199 207 211 210 209 210 212 216 220 224 225 231 233 236 239 241 242 241 242 242 245 245 245 248 251 255 255 253 252 254 254 253 256 258 261 263 271 270 271
327 330 331 331 329 326 326 329 331 332 316 271 219 200 197 199 206 209 207 207 208 213 218 222 225 226 232 233 238 241 241 242 243 243 244 247 249 247 248 251 253 257 255 253 250 247 248 251 249 254 259 265 266 267
325 327 330 331 327 325 327 328 330 326 305 255 212 196 195 194 206 208 205 204 207 213 220 222 220 227 233 234 239 246 250 250 248 247 247 249 253 255 248 245 248 250 253 256 256 253 250 253 254 255 259 263 265 266
324 325 328 328 324 324 325 329 330 319 292 239 214 198 197 200 205 206 201 200 204 210 217 217 221 229 235 239 246 253 257 255 253 252 250 249 249 251 252 253 255 255 254 253 254 256 259 260 261 261 261 261 262 263
322 322 326 324 322 322 324 327 325 309 273 224 207 203 202 200 197 190 193 193 201 213 213 222 227 232 238 245 252 259 263 262 258 256 253 250 250 250 254 257 257 258 261 262 260 261 262 262 261 259 259 260 261 263
320 321 323 323 321 321 323 323 316 298 258 219 204 202 198 192 189 186 191 197 204 212 207 221 229 239 246 254 263 263 261 257 251 244 233 234 235 204 207 234 252 280 291 288 269 263 261 257 256 257 256 256 258 259
320 321 320 319 318 320 322 319 306 283 240 214 201 197 191 189 189 190 190 198 203 206 218 229 235 247 260 259 247 241 223 208 185 158 158 147 141 118 178 25 333 323 329 312 289 272 263 262 259 258 258 256 255 255
319 319 318 316 316 318 318 310 293 266 224 207 198 193 190 188 188 189 194 202 204 206 217 227 241 259 232 227 217 192 170 159 153 143 153 154 149 150 149 252 314 317 324 324 303 284 274 266 263 262 261 261 262 262
318 317 314 315 315 315 309 298 277 243 212 200 192 188 187 188 187 189 192 192 189 206 222 240 250 200 203 210 189 170 161 143 145 155 165 158 157 217 138 229 295 311 338 330 331 352 324 301 286 277 272 270 268 268
316 316 315 317 315 309 298 283 254 224 201 193 186 185 185 184 183 186 183 181 191 204 227 215 186 195 199 204 181 165 165 164 165 136 138 123 78 142 117 29 348 286 303 308 343 44 50 44 22 345 298 287 285 284
317 317 318 316 311 302 288 262 229 208 194 188 182 180 182 182 184 183 178 181 196 207 187 172 175 184 174 159 154 150 152 154 155 141 144 153 115 61 250 169 240 263 282 283 308 345 359 346 333 325 324 311 299 293
321 320 318 315 307 294 271 234 210 198 191 183 179 179 179 179 181 178 183 189 201 193 170 168 172 166 148 146 152 152 152 162 180 173 159 161 152 175 218 262 261 269 272 288 300 302 312 322 319 311 305 300 297 295
324 322 318 312 301 285 248 212 200 192 187 178 177 180 181 181 183 183 186 189 199 181 170 174 172 163 160 159 161 153 152 163 168 173 183 196 242 250 256 260 265 259 267 277 291 306 310 305 302 303 303 303 302 299
326 323 316 308 294 269 221 199 193 188 183 177 178 182 184 184 186 185 186 193 183 173 177 178 171 164 167 172 169 165 175 170 168 185 205 223 243 256 257 265 267 267 270 281 292 298 300 302 306 306 304 305 303 299
326 321 313 303 283 243 202 191 187 184 178 177 179 182 184 184 185 185 191 200 187 178 178 173 166 165 175 181 181 179 182 197 207 231 224 230 242 249 250 253 260 269 278 288 296 300 304 307 305 306 307 304 302 300
322 319 309 292 261 216 193 187 185 183 178 181 180 181 182 184 183 185 193 193 181 177 171 179 185 184 185 187 193 198 205 217 236 248 250 243 241 259 268 268 271 279 287 292 298 302 300 302 305 310 306 305 305 306
321 318 303 277 232 206 190 184 183 182 181 181 180 181 182 180 181 188 191 178 173 179 184 189 192 194 197 200 200 203 214 221 227 234 242 247 252 262 273 282 286 292 298 302 300 299 301 302 308 309 309 307 310 309
322 316 297 257 221 199 184 182 182 182 180 180 180 179 179 180 184 188 177 174 179 182 187 195 196 198 200 207 216 216 215 212 216 233 246 263 276 282 287 292 298 300 297 298 304 308 306 304 305 307 304 304 313 271
322 316 296 244 207 187 181 181 181 181 180 180 181 180 180 181 185 182 179 182 185 187 191 195 201 199 204 212 218 216 209 224 237 249 268 284 292 298 299 298 299 300 307 308 310 309 306 301 300 299 290 306 164 155
324 315 283 216 186 179 178 179 180 180 180 180 182 183 183 185 185 183 185 188 191 191 191 195 197 202 208 209 205 211 228 241 256 268 280 288 294 298 298 301 305 306 309 314 314 312 306 298 290 258 204 157 158 176
332 321 229 175 175 174 177 178 179 181 180 182 183 186 185 187 188 189 190 193 192 190 192 195 200 205 210 216 222 229 239 253 262 273 290 296 295 298 302 305 308 315 318 318 319 316 306 259 200 195 180 193 196 210
350 10 145 159 166 170 176 180 181 183 184 185 186 187 189 190 193 193 194 194 193 194 197 205 209 214 218 224 232 239 250 258 268 282 289 293 299 304 308 313 318 320 322 326 331 335 160 171 200 204 207 221 219 224
30 65 124 146 158 166 173 178 182 183 187 189 191 193 195 196 196 197 198 199 200 203 210 216 222 226 230 235 241 247 256 267 281 279 284 296 300 307 314 319 322 329 330 332 340 161 169 191 208 212 215 223 231 234
41 67 116 145 155 160 162 168 175 182 188 192 196 196 196 198 202 204 206 207 209 212 218 225 235 240 242 246 255 265 271 267 276 284 289 290 308 313 316 322 326 335 337 332 324 182 194 213 221 225 232 239 241 246
37 54 97 138 154 158 163 167 170 176 179 187 194 199 200 197 201 205 209 212 217 222 227 233 240 247 255 261 258 261 263 273 275 280 284 303 309 313 320 325 329 342 348 354 343 203 214 223 241 250 246 250 248 248
34 37 91 129 146 155 157 158 164 173 180 186 189 193 198 203 205 204 203 202 203 206 210 210 217 214 232 243 251 255 258 261 271 271 288 298 303 315 324 324 320 338 3 13 14 31 333 254 252 261 266 267 268 266
41 40 64 110 135 146 150 154 156 157 160 168 178 188 194 197 198 197 195 191 190 188 191 201 230 235 237 236 244 250 250 256 268 284 289 289 304 322 329 327 318 324 336 347 355 7 6 3 2 342 314 312 304 309
Height
10712 10700 10688 10676 10665 10651 10639 10625 10613 10602 10596 10594 10597 10603 10611 10621 10634 10647 10661 10676 10689 10701 10713 10721 10737 10749 10763 10777 10783 10794 10804 10800 10813 10822 10829 10831 10843 10844 10847 10852 10858 10866 10872 10875 10876 10876 10877 10882 10887 10893 10898 10898 10894 10890
10703 10690 10680 10668 10657 10644 10632 10619 10606 10594 10589 10587 10590 10596 10604 10614 10626 10639 10651 10665 10675 10683 10698 10708 10721 10732 10738 10749 10750 10759 10773 10778 10787 10801 10811 10815 10828 10836 10830 10834 10837 10851 10852 10862 10858 10862 10860 10868 10876 10876 10878 10883 10880 10875
10694 10683 10672 10661 10650 10637 10625 10613 10601 10590 10583 10580 10583 10589 10597 10607 10618 10629 10640 10653 10665 10676 10691 10697 10702 10709 10718 10737 10744 10756 10763 10772 10778 10792 10800 10804 10808 10818 10812 10811 10826 10833 10843 10841 10839 10840 10849 10855 10862 10860 10862 10864 10864 10864
10686 10676 10665 10654 10643 10631 10620 10608 10596 10585 10578 10576 10576 10581 10589 10598 10610 10619 10630 10645 10658 10668 10680 10681 10698 10715 10719 10725 10731 10738 10746 10758 10767 10776 10783 10790 10797 10784 10784 10795 10803 10804 10824 10822 10826 10830 10832 10837 10836 10838 10841 10844 10846 10847
10678 10668 10657 10647 10637 10625 10613 10603 10591 10579 10572 10570 10572 10575 10581 10591 10602 10612 10624 10639 10651 10661 10671 10675 10688 10692 10698 10707 10713 10721 10730 10740 10747 10754 10762 10770 10760 10760 10768 10777 10783 10793 10796 10804 10811 10812 10818 10817 10823 10820 10822 10821 10825 10831
10670 10659 10649 10638 10628 10617 10607 10596 10585 10575 10568 10564 10565 10569 10575 10586 10596 10606 10620 10630 10639 10649 10661 10670 10678 10686 10690 10699 10702 10709 10715 10722 10729 10736 10746 10744 10743 10752 10756 10759 10759 10779 10791 10792 10797 10798 10802 10802 10805 10803 10803 10806 10810 10813
10661 10650 10640 10629 10619 10609 10598 10589 10578 10569 10561 10558 10560 10563 10570 10580 10591 10601 10609 10623 10632 10642 10653 10662 10667 10673 10682 10689 10694 10701 10706 10711 10717 10721 10726 10721 10723 10736 10741 10742 10745 10754 10764 10778 10777 10777 10779 10782 10782 10785 10786 10789 10795 10800
10650 10640 10630 10619 10609 10600 10591 10581 10571 10563 10556 10554 10555 10559 10567 10577 10587 10597 10608 10618 10628 10637 10647 10654 10658 10665 10674 10680 10686 10691 10696 10700 10704 10706 10708 10706 10704 10719 10728 10742 10732 10724 10738 10744 10745 10747 10752 10757 10765 10772 10771 10775 10781 10783
10639 10629 10619 10609 10600 10591 10582 10572 10563 10554 10550 10549 10551 10556 10564 10573 10580 10591 10604 10613 10622 10631 10637 10646 10653 10659 10667 10672 10677 10681 10683 10687 10690 10691 10691 10691 10695 10709 10714 10705 10706 10713 10715 10721 10724 10723 10733 10737 10748 10753 10757 10757 10757 10767
10626 10617 10608 10598 10588 10581 10571 10562 10553 10545 10542 10543 10546 10552 10560 10568 10577 10590 10600 10609 10617 10625 10632 10642 10647 10651 10658 10663 10667 10668 10670 10673 10674 10674 10676 10681 10681 10685 10689 10692 10696 10699 10703 10703 10699 10700 10704 10716 10724 10730 10735 10736 10738 10740
10613 10604 10596 10586 10577 10569 10560 10552 10543 10537 10536 10537 10541 10547 10554 10564 10575 10586 10596 10604 10612 10619 10628 10636 10640 10646 10650 10654 10656 10657 10657 10657 10657 10658 10664 10663 10664 10671 10675 10676 10681 10684 10685 10685 10684 10686 10691 10696 10701 10705 10706 10713 10719 10719
10601 10591 10581 10573 10564 10556 10548 10539 10532 10528 10527 10530 10534 10542 10551 10561 10571 10580 10590 10599 10607 10614 10623 10628 10635 10639 10641 10643 10645 10644 10643 10643 10644 10645 10647 10649 10656 10659 10663 10666 10669 10670 10671 10669 10665 10669 10669 10669 10670 10675 10682 10687 10691 10695
10587 10577 10567 10557 10549 10540 10533 10525 10521 10519 10519 10522 10527 10536 10546 10555 10567 10576 10584 10592 10600 10610 10619 10625 10629 10631 10633 10632 10632 10634 10634 10636 10638 10639 10642 10646 10645 10649 10650 10655 10660 10661 10658 10655 10654 10651 10649 10650 10654 10657 10661 10665 10670 10673
10573 10563 10552 10541 10533 10525 10517 10512 10509 10510 10511 10515 10522 10531 10542 10553 10563 10573 10582 10593 10601 10609 10614 10618 10621 10623 10623 10623 10625 10628 10631 10632 10634 10635 10638 10642 10642 10643 10646 10651 10647 10654 10652 10647 10643 10638 10638 10639 10642 10645 10648 10651 10655 10659
10558 10547 10536 10526 10515 10507 10502 10499 10498 10500 10503 10509 10517 10527 10538 10549 10559 10570 10580 10589 10599 10607 10612 10614 10615 10617 10617 10619 10620 10625 10629 10630 10632 10633 10634 10637 10640 10644 10648 10650 10654 10655 10652 10645 10639 10634 10635 10636 10638 10640 10642 10644 10646 10648
10540 10531 10519 10507 10496 10491 10488 10487 10488 10491 10496 10503 10512 10523 10534 10545 10557 10567 10577 10585 10597 10602 10607 10608 10611 10613 10614 10616 10618 10625 10629 10630 10633 10633 10639 10640 10641 10643 10646 10649 10649 10652 10650 10644 10640 10638 10636 10637 10638 10639 10640 10641 10643 10644
10524 10513 10499 10489 10482 10479 10477 10477 10480 10485 10491 10498 10509 10522 10533 10544 10555 10565 10575 10584 10591 10597 10599 10603 10607 10610 10612 10612 10617 10624 10628 10630 10633 10636 10640 10642 10645 10645 10646 10656 10655 10650 10651 10646 10644 10641 10639 10639 10640 10640 10640 10641 10641 10641
10508 10494 10481 10475 10471 10469 10469 10470 10474 10480 10487 10497 10508 10519 10531 10542 10553 10564 10573 10581 10587 10592 10596 10601 10605 10607 10610 10612 10615 10621 10627 10629 10631 10633 10636 10637 10643 10651 10647 10648 10650 10648 10645 10643 10642 10641 10640 10639 10638 10638 10638 10637 10636 10635
10491 10479 10471 10466 10464 10463 10464 10467 10471 10477 10485 10496 10508 10519 10530 10540 10551 10561 10570 10578 10584 10590 10595 10600 10603 10606 10608 10612 10617 10621 10626 10629 10630 10629 10630 10633 10637 10641 10644 10646 10648 10647 10646 10645 10642 10639 10637 10636 10635 10633 10632 10629 10626 10622
10479 10470 10465 10460 10459 10459 10461 10464 10469 10476 10484 10495 10506 10517 10529 10539 10549 10559 10568 10574 10580 10586 10593 10599 10602 10606 10610 10612 10616 10619 10619 10626 10630 10630 10631 10631 10633 10634 10635 10638 10639 10640 10641 10640 10636 10633 10631 10629 10627 10625 10621 10617 10613 10608
10470 10465 10461 10457 10456 10457 10459 10463 10468 10475 10484 10495 10505 10516 10527 10538 10549 10558 10566 10573 10578 10585 10592 10598 10602 10606 10609 10612 10615 10618 10622 10626 10629 10630 10632 10632 10633 10633 10634 10634 10634 10634 10633 10631 10628 10625 10623 10621 10618 10616 10612 10606 10601 10594
10465 10460 10456 10454 10454 10456 10459 10463 10468 10476 10486 10496 10506 10516 10527 10539 10549 10558 10565 10569 10577 10585 10591 10597 10601 10604 10608 10612 10615 10619 10622 10624 10627 10628 10629 10629 10630 10631 10630 10631 10630 10628 10626 10623 10621 10618 10615 10613 10611 10607 10602 10594 10588 10582
10460 10456 10453 10452 10453 10454 10457 10462 10468 10477 10486 10497 10508 10519 10529 10539 10548 10556 10562 10569 10577 10584 10589 10593 10597 10603 10607 10610 10614 10619 10622 10623 10624 10624 10625 10625 10626 10625 10624 10623 10621 10620 10617 10615 10613 10611 10607 10603 10601 10597 10590 10584 10579 10574
10456 10452 10450 10450 10451 10453 10456 10461 10468 10477 10487 10498 10509 10519 10529 10538 10546 10553 10560 10568 10575 10581 10587 10592 10596 10601 10605 10609 10611 10613 10615 10617 10618 10619 10620 10621 10620 10619 10617 10616 10614 10613 10611 10608 10605 10601 10596 10591 10588 10585 10580 10576 10573 10569
10452 10449 10447 10448 10449 10452 10456 10461 10468 10477 10488 10498 10509 10519 10528 10536 10544 10552 10560 10567 10573 10579 10585 10590 10595 10599 10602 10605 10607 10610 10612 10613 10615 10615 10616 10616 10615 10614 10612 10610 10609 10606 10603 10597 10593 10587 10583 10578 10576 10574 10571 10572 10572 10571
10450 10448 10446 10447 10449 10453 10458 10463 10469 10478 10489 10499 10509 10519 10528 10536 10543 10551 10559 10565 10570 10577 10584 10589 10593 10596 10599 10602 10605 10607 10609 10611 10612 10612 10612 10612 10611 10609 10608 10603 10600 10597 10593 10587 10579 10573 10568 10565 10563 10564 10567 10570 10572 10572
10450 10448 10447 10448 10451 10454 10459 10465 10471 10479 10489 10498 10508 10518 10527 10535 10542 10547 10554 10561 10569 10578 10583 10587 10590 10593 10597 10600 10602 10604 10606 10607 10608 10609 10609 10607 10607 10604 10601 10598 10594 10590 10583 10575 10568 10561 10557 10556 10557 10562 10566 10568 10570 10572
10452 10450 10450 10451 10454 10458 10462 10467 10473 10481 10490 10499 10507 10516 10523 10530 10537 10546 10554 10562 10570 10575 10579 10582 10587 10591 10593 10596 10598 10601 10603 10604 10605 10605 10604 10602 10601 10599 10595 10592 10587 10582 10573 10566 10560 10556 10556 10557 10559 10562 10565 10566 10567 10569
10455 10454 10454 10455 10457 10461 10464 10469 10475 10482 10491 10500 10509 10516 10524 10531 10538 10546 10553 10560 10566 10571 10574 10579 10583 10584 10588 10591 10594 10597 10599 10600 10600 10600 10599 10597 10596 10593 10590 10586 10580 10574 10566 10560 10557 10556 10558 10557 10559 10560 10563 10563 10564 10566
10459 10458 10458 10459 10461 10464 10467 10471 10477 10484 10491 10499 10506 10513 10520 10530 10539 10546 10553 10559 10564 10568 10572 10576 10577 10579 10581 10584 10589 10593 10594 10595 10595 10595 10594 10593 10591 10589 10586 10581 10576 10572 10565 10560 10556 10556 10556 10556 10558 10559 10560 10562 10562 10562
10465 10463 10463 10464 10465 10468 10471 10474 10478 10483 10488 10494 10502 10511 10520 10527 10534 10541 10549 10556 10561 10567 10571 10572 10573 10574 10578 10581 10583 10585 10587 10588 10589 10589 10589 10588 10587 10585 10581 10578 10574 10570 10565 10560 10557 10557 10556 10556 10557 10557 10558 10559 10559 10559
10472 10468 10467 10467 10469 10472 10475 10479 10483 10488 10494 10500 10506 10512 10518 10525 10532 10539 10546 10553 10557 10561 10562 10566 10569 10572 10573 10575 10577 10579 10583 10583 10584 10584 10585 10584 10582 10581 10578 10576 10573 10572 10569 10565 10561 10558 10557 10556 10555 10555 10556 10556 10554 10553
10479 10476 10473 10472 10474 10476 10479 10483 10487 10491 10496 10500 10505 10510 10516 10522 10529 10536 10543 10549 10554 10557 10561 10566 10565 10569 10571 10573 10574 10576 10578 10578 10579 10579 10579 10579 10578 10576 10574 10573 10570 10567 10565 10562 10560 10558 10557 10556 10555 10554 10552 10549 10547 10545